New Orleans Lakefront, LA

7:17 AM CST on November 21, 2019 (GMT -0600)
Lakefront

Weather History for KNEW - September, 2019

Change the Weather History Date:

Thursday, September 5, 2019

  Actual Average Record
Temperature  
Mean Temperature 87 °F 82 °F  
Max Temperature 97 °F 90 °F 97 °F (2000)
Min Temperature 76 °F 74 °F 61 °F (1952)
Degree Days  
Heating Degree Days 0 0  
Month to date heating degree days 0 0  
Since 1 July heating degree days 0 0  
Cooling Degree Days 22 17  
Month to date cooling degree days 111 85  
Year to date cooling degree days 2752 2331  
Growing Degree Days 38 (Base 50)    
Moisture  
Dew Point 75 °F    
Average Humidity 67    
Maximum Humidity 91    
Minimum Humidity 42    
Precipitation  
Precipitation 0.00 in 0.19 in 4.98 in (1977)
Month to date precipitation T 0.98  
Year to date precipitation 46.76 45.19  
Snow  
Snow 0.00 in - - ()
Month to date snowfall 0.0  
Since 1 July snowfall 0.0  
Since 1 September snowfall 0.0  
Snow Depth 0.00 in    
Sea Level Pressure  
Sea Level Pressure 30.00 in    
Wind  
Wind Speed 5 mph (NW)    
Max Wind Speed 13 mph    
Max Gust Speed 17 mph    
Visibility 9 miles    
Events      
T = Trace of Precipitation, MM = Missing Value Source: NWS Daily Summary

Daily Weather History Graph

Daily Weather History Graph

Search for Another Location

Airport or City:

Astronomy

Sep. 05, 2019 Rise Set
Actual Time 6:39 AM CDT 7:18 PM CDT
Civil Twilight 6:14 AM CDT 7:42 PM CDT
Nautical Twilight 5:46 AM CDT 8:10 PM CDT
Astronomical Twilight 5:17 AM CDT 8:39 PM CDT
Moon 1:16 PM CDT (9/5) No Moon Set
Length of Visible Light 13h 27m
Length of Day
12h 38m
Waxing Crescent, 45% of the Moon is Illuminated
Sep 5
Waxing Crescent
Sep 5
First Quarter
Sep 13
Full
Sep 21
Last Quarter
Sep 28
New

Hourly Weather History & Observations

Time (CDT) Temp. Heat Index Dew Point Humidity Pressure Visibility Wind Dir Wind Speed Gust Speed Precip Events Conditions
12:53 AM 86.0 °F 93.8 °F 73.9 °F 67% 29.98 in 10.0 mi North 9.2 mph - N/A   Clear
1:53 AM 86.0 °F 95.1 °F 75.0 °F 70% 29.98 in 10.0 mi NNE 8.1 mph - N/A   Clear
2:53 AM 86.0 °F 93.8 °F 73.9 °F 67% 29.98 in 10.0 mi NNE 9.2 mph - N/A   Clear
3:53 AM 86.0 °F 93.0 °F 73.0 °F 65% 29.98 in 10.0 mi NE 6.9 mph - N/A   Clear
4:53 AM 84.9 °F 90.7 °F 72.0 °F 65% 29.99 in 10.0 mi NE 4.6 mph - N/A   Clear
5:53 AM 84.0 °F 90.2 °F 73.0 °F 69% 30.00 in 10.0 mi NNE 4.6 mph - N/A   Clear
6:53 AM 84.0 °F 90.2 °F 73.0 °F 69% 30.02 in 9.0 mi NNE 3.5 mph - N/A   Clear
7:53 AM 84.9 °F 92.1 °F 73.9 °F 69% 30.04 in 9.0 mi North 3.5 mph - N/A   Clear
8:53 AM 87.1 °F 94.5 °F 73.0 °F 63% 30.05 in 10.0 mi North 3.5 mph - N/A   Clear
9:53 AM 87.1 °F 94.5 °F 73.0 °F 63% 30.06 in 8.0 mi NW 5.8 mph - N/A   Clear
10:53 AM 87.1 °F 94.5 °F 73.0 °F 63% 30.05 in 9.0 mi WNW 5.8 mph - N/A   Clear
11:53 AM 88.0 °F 95.6 °F 73.0 °F 61% 30.05 in 9.0 mi WNW 6.9 mph - N/A   Clear
12:53 PM 89.1 °F 97.0 °F 73.0 °F 59% 30.04 in 10.0 mi West 6.9 mph - N/A   Clear
1:53 PM 91.0 °F 100.4 °F 73.9 °F 57% 30.02 in 10.0 mi West 10.4 mph - N/A   Clear
2:53 PM 91.0 °F 101.6 °F 75.0 °F 59% 30.00 in 10.0 mi West 9.2 mph - N/A   Clear
3:53 PM 91.9 °F 100.7 °F 73.0 °F 54% 29.98 in 9.0 mi WNW 12.7 mph - N/A   Clear
4:53 PM 91.9 °F 101.3 °F 73.9 °F 55% 29.97 in 10.0 mi West 11.5 mph - N/A   Clear
5:53 PM 91.9 °F 101.3 °F 73.9 °F 55% 29.96 in 9.0 mi West 10.4 mph - N/A   Clear
6:53 PM 90.0 °F 101.3 °F 75.9 °F 63% 29.96 in 8.0 mi West 8.1 mph - N/A   Clear
7:53 PM 89.1 °F 101.4 °F 77.0 °F 67% 29.96 in 10.0 mi WNW 6.9 mph - N/A   Clear
8:53 PM 89.1 °F 103.2 °F 78.1 °F 70% 29.97 in 6.0 mi NNW 8.1 mph - N/A   Haze
9:53 PM 88.0 °F 103.1 °F 79.0 °F 75% 29.98 in 6.0 mi NW 8.1 mph - N/A   Haze
10:53 PM 88.0 °F 101.3 °F 78.1 °F 72% 29.97 in 10.0 mi NW 6.9 mph - N/A   Clear
11:53 PM 88.0 °F 101.3 °F 78.1 °F 72% 29.97 in 10.0 mi NW 6.9 mph - N/A   Clear